Location: San Michele di Serino
(40.8833°N, 14.8500°E)
Time: 23:06:14
(UTC+00:00)

Daily predictions for brighter satellites

Satellite Brightness Start Highest point End
(mag) Time Altitude Azimuth Time Altitude Azimuth Time Altitude Azimuth
Cosmos 2098 Rocket 4.2 15:54:55 10° N 16:01:12 70° E 16:08:24 10° SSE
ATLAS 5 CENTAUR R/B 2.8 15:56:26 10° NW 16:02:12 73° WSW 16:09:00 10° SSE
CZ-2C R/B 3.0 15:58:37 10° SSE 16:03:46 83° ENE 16:08:42 10° N
Cosmos-2242 4.0 16:02:37 10° SSW 16:06:50 51° W 16:11:02 10° N
FengYun 1-2 T 4.3 16:01:16 10° SSE 16:06:50 67° ENE 16:12:23 10° N
SJ 16-02 2.1 16:04:03 10° N 16:07:58 31° ENE 16:11:52 10° SE
NOAA 6 4.1 16:05:21 10° SSE 16:10:23 57° ENE 16:15:25 10° N
CZ-4B R/B 4.1 16:07:01 10° ESE 16:11:25 25° ENE 16:15:46 10° N
CORIOLIS 4.3 16:07:16 10° SSE 16:12:27 53° ENE 16:17:42 10° N
Cosmos 1842 Rocket 4.3 16:09:14 10° SSE 16:13:12 34° E 16:17:13 10° NNE
Cosmos 1833 Rocket 4.4 16:11:44 10° SE 16:14:19 13° E 16:16:54 10° ENE
Cosmos 1354 Rocket 4.2 16:09:23 10° NNW 16:14:45 82° WSW 16:20:04 10° SSE
CZ-4B R/B 3.4 16:12:57 10° S 16:17:15 70° WSW 16:21:23 10° NNW
Iridium 2 3.6 16:23:29 10° N 16:27:16 89° ENE 16:31:01 10° S
Cosmos 1766 Rocket 3.6 16:24:08 10° N 16:28:30 84° W 16:32:50 10° S
Cosmos 1606 2.5 16:25:55 10° S 16:29:38 72° E 16:33:23 10° NNE
USA 305 3.7 16:25:37 10° WSW 16:29:41 45° NNW 16:33:32 11° NE
EXPRESS MD2 4.2 16:29:02 10° W 16:30:54 26° SW 16:32:59 10° SSE
ARGOS 3.9 16:27:04 10° SE 16:31:39 29° ENE 16:36:14 10° N
Okean O Rocket 2.6 16:30:49 10° SE 16:34:29 26° ENE 16:38:11 10° NNE
Atlas Centaur 2 3.6 16:33:56 10° SW 16:36:04 15° S 16:38:16 10° SSE
USA 276 4.2 16:35:01 10° NW 16:36:59 15° N 16:38:19 13° NNE
Cosmos 1464 Rocket 4.0 16:31:39 10° S 16:38:00 87° E 16:44:25 10° N
COSMO-SKYMED 1 3.1 16:35:17 10° NNE 16:39:19 36° E 16:43:19 10° SSE
ERBS 2.1 16:42:05 10° SW 16:45:16 82° NW 16:47:12 22° NE
Cosmos 1763 Rocket 4.2 16:41:18 10° SSE 16:45:42 31° E 16:48:40 18° NE
Cosmos 2221 2.5 16:43:25 10° S 16:47:39 84° W 16:51:57 10° N
NOSS 2-1 (E) 4.4 16:46:27 10° WSW 16:49:25 30° NW 16:52:18 11° NNE
Meteor 2-19 Rocket 4.4 16:43:43 10° N 16:49:49 79° E 16:55:54 10° S
ISS -1.5 16:51:14 10° NW 16:53:27 16° NNW 16:54:50 13° NNE
CZ-2C R/B 2.6 16:50:09 10° NNE 16:55:18 56° E 17:00:22 10° S
deb Chang Zheng 4 3.6 16:51:25 10° SSE 16:55:34 52° ENE 16:59:47 10° N
Cosmos 1933 3.9 16:52:03 10° SSE 16:55:46 35° E 16:57:32 24° NE
deb Kosmos-1763 4.1 16:52:47 10° SSW 16:56:09 67° WNW 16:59:07 13° NNE
Cosmos 1340 Rocket 2.9 16:54:02 10° N 16:58:00 51° ENE 17:01:57 10° SSE
USA 306 4.3 16:57:45 10° W 17:01:32 30° NNW 17:04:01 17° NNE
Cosmos 990 Rocket 4.4 16:57:20 10° N 17:02:10 37° ENE 17:06:22 13° SE
Nadezhda 4 Rocket 4.0 16:56:13 10° N 17:02:33 88° E 17:08:53 10° S
SMAP 4.5 16:59:04 10° S 17:03:27 41° W 17:07:51 10° NNW
SKYMED 3 4.5 16:59:06 10° NNE 17:03:27 69° ESE 17:07:46 10° S
SL-19 R/B 4.5 16:57:45 10° NNE 17:03:43 77° ESE 17:10:09 10° SSW
Landsat 5 3.6 17:02:19 18° NNE 17:05:17 51° E 17:09:17 10° S
CZ-4 R/B 4.5 17:04:50 10° SSE 17:08:50 53° ENE 17:12:52 10° N
Cosmos 1092 Rocket 4.0 17:03:15 10° N 17:09:32 59° E 17:15:45 10° SSE
Cosmos 1408 Rocket 4.0 17:05:58 10° NNW 17:10:15 63° W 17:14:32 10° S
H-2A R/B 2.2 17:05:43 10° S 17:11:02 79° WSW 17:16:15 10° NNW
COSMOS 2455 4.1 17:07:31 10° SSE 17:11:24 22° ESE 17:11:24 22° ESE
Cosmos 1743 Rocket 3.4 17:07:55 10° N 17:12:15 70° E 17:16:33 10° SSE
COSMOS 2406 3.8 17:08:54 10° SSE 17:14:02 35° ESE 17:15:10 32° E
Cosmos 1697 Rocket 3.4 17:09:29 10° N 17:14:22 30° NE 17:14:22 30° NE
Cosmos 1980 Rocket 3.9 17:10:54 10° N 17:12:44 15° NNE 17:12:44 15° NNE
SJ-11-01 4.2 17:11:37 10° SSE 17:16:20 71° ENE 17:21:05 10° N
USA 307 4.4 17:13:00 10° W 17:16:42 28° NNW 17:18:33 20° NNE
Cosmos 2082 Rocket 3.7 17:13:51 10° SSE 17:16:18 19° SE 17:16:18 19° SE
Cosmos 2034 Rocket 4.4 17:13:20 10° SSW 17:19:27 64° W 17:25:35 10° N
Cosmos 44 3.4 17:15:57 10° NNW 17:20:34 46° NE 17:20:57 45° ENE
ATLAS CENTAUR R/B 3.8 17:17:45 10° W 17:20:37 18° NW 17:23:38 10° N
Cosmos 1627 Rocket 4.4 17:18:48 10° N 17:24:59 65° E 17:31:04 10° SSE
Meteor 2-14 Rocket 4.4 17:19:34 10° N 17:25:35 57° ENE 17:31:33 10° SSE
Lacrosse 5 2.6 17:20:50 10° NW 17:25:49 54° SW 17:30:46 10° SSE
SKYMED 2 3.9 17:23:06 10° N 17:27:25 64° WNW 17:31:42 10° SSW
NOSS 3-1 (A) 4.3 17:20:18 10° NNW 17:27:36 50° NE 17:31:39 30° ESE
Cosmos 1428 Rocket 4.3 17:21:53 10° N 17:27:59 70° E 17:34:06 10° SSE
Cosmos 1809 Rocket 4.3 17:24:23 10° N 17:30:31 75° E 17:36:35 10° SSE
Cosmos 1898 Rocket 3.6 17:25:59 10° N 17:31:06 49° ENE 17:31:16 49° ENE
GEOS 3 Rocket 3.7 17:26:52 10° SSE 17:32:09 80° SW 17:37:23 10° NW
MOS 1-B Rocket 4.5 17:26:44 10° N 17:32:19 60° WNW 17:38:29 10° SSW
NOSS 3-1 (C) 4.0 17:24:58 10° NNW 17:32:39 78° NE 17:41:33 10° SE
Cosmos 1656 3.5 17:28:10 10° NNW 17:33:44 83° ENE 17:39:19 10° SSE
SL-08 RB Rocket 3.6 17:32:42 10° SSE 17:37:21 79° ENE 17:42:01 10° N
Meteor 2-21 Rocket 4.5 17:31:42 10° N 17:37:41 52° ENE 17:43:35 10° SSE
Meteor 1-20 Rocket 4.4 17:32:22 10° NNW 17:38:10 78° W 17:44:00 10° S
Cosmos 468 Rocket 3.9 17:35:19 10° SSW 17:40:27 83° WNW 17:42:42 35° NNE
Cosmos 2279 Rocket 4.0 17:35:43 10° SSE 17:41:45 56° E 17:43:29 42° NE
SJ 16-02 3.8 17:42:57 10° NW 17:46:20 22° W 17:49:42 10° SSW
Cosmos 1634 Rocket 4.0 17:41:30 10° S 17:47:48 83° W 17:54:11 10° N
DMSP B5D2-2 3.9 17:48:33 70° E 17:48:43 70° ESE 17:53:54 10° S
DMSP B5D1-3 4.5 17:50:11 63° SE 17:50:11 63° SE 17:54:47 10° S
CZ-4B R/B 4.3 17:46:27 10° S 17:51:42 44° W 17:56:53 10° NNW
Cosmos 1805 Rocket 3.8 17:49:50 10° NNW 17:54:08 64° W 17:58:24 10° S
Cosmos 1833 Rocket 2.7 17:51:50 10° SSW 17:57:27 79° WNW 17:58:46 54° N
CZ-4C R/B 4.0 17:51:29 10° NNW 17:56:09 26° NNE 17:56:09 26° NNE
ATLAS 5 CENTAUR R/B 4.4 17:56:13 10° NNW 17:58:54 17° N 17:58:54 17° N
Cosmos 540 Rocket 3.5 17:57:53 10° SSW 18:02:28 72° SSW 18:02:28 72° SSW
Cosmos 2026 Rocket 4.5 18:04:38 10° NNW 18:10:39 56° W 18:16:35 10° SSW
Okean O Rocket 3.6 18:06:53 10° SSW 18:10:43 29° W 18:14:36 10° NW
ATLAS CENTAUR R/B 3.4 18:10:12 10° WSW 18:18:45 43° NW 18:19:16 42° NNW
USA 229 DEB 4.2 18:48:02 10° NW 18:54:57 63° W 18:54:57 63° W
USA 229 4.2 18:48:08 10° NW 18:54:58 63° W 18:54:58 63° W
COSMOS 2455 4.3 18:51:29 10° SW 18:54:37 31° SW 18:54:37 31° SW
Cosmos 1697 Rocket 4.4 18:53:14 10° NW 18:56:10 28° WNW 18:56:10 28° WNW
Cosmos 2082 Rocket 4.2 18:56:12 10° SW 18:58:13 22° SW 18:58:13 22° SW
